Weather History for KGUY - February, 2014

Change the Weather History Date:

Wednesday, February 5, 2014

  Actual Average Record
Temperature  
Mean Temperature 6 °F 37 °F  
Max Temperature 9 °F 52 °F 75 °F (2009)
Min Temperature 2 °F 22 °F 2 °F (2014)
Degree Days  
Heating Degree Days 59 28  
Month to date heating degree days 216 140  
Since 1 July heating degree days 2932 2868  
Cooling Degree Days 0 0  
Month to date cooling degree days 0 0  
Year to date cooling degree days 0 0  
Moisture  
Dew Point -3 °F    
Average Humidity 70    
Maximum Humidity 76    
Minimum Humidity 63    
Precipitation  
Precipitation 0.02 in 0.02 in 0.13 in (2008)
Month to date precipitation 0.14 0.08  
Year to date precipitation 0.32 0.48  
Snow  
Snow 0.50 in - - ()
Month to date snowfall 2.5  
Since 1 July snowfall 12.7  
Snow Depth 2.00 in    
Sea Level Pressure  
Sea Level Pressure 30.54 in    
Wind  
Wind Speed 16 mph (NNE)    
Max Wind Speed 29 mph    
Max Gust Speed 33 mph    
Visibility 9 miles    
Events Snow    
T = Trace of Precipitation, MM = Missing Value Source: NWS Daily Summary

Daily Weather History Graph

Daily Weather History Graph

Search for Another Location

Airport or City:

Trip Planner

Search our weather history database for the weather conditions in past years. The results will help you decide how hot, cold, wet, or windy it might be!

Date:

Astronomy

Feb. 05, 2014 Rise Set
Actual Time 7:44 AM CST 6:16 PM CST
Civil Twilight 7:17 AM CST 6:43 PM CST
Nautical Twilight 6:46 AM CST 7:13 PM CST
Astronomical Twilight 6:16 AM CST 7:44 PM CST
Moon 11:11 AM CST (2/5) 12:00 AM CST (2/5)
Length of Visible Light 11h 25m
Length of Day
10h 31m
Waxing Crescent, 39% of the Moon is Illuminated
Feb 5
Waxing Crescent
Feb 6
First Quarter
Feb 14
Full
Feb 22
Last Quarter
Mar 1
New

Hourly Weather History & Observations

Time (CST) Temp. Windchill Dew Point Humidity Pressure Visibility Wind Dir Wind Speed Gust Speed Precip Events Conditions
12:01 AM 9.0 °F -9.0 °F 1.9 °F 73% 30.29 in 10.0 mi North 17.3 mph - N/A   Partly Cloudy
12:24 AM 9.0 °F -8.5 °F 1.9 °F 73% 30.30 in 10.0 mi North 16.1 mph - N/A   Mostly Cloudy
12:32 AM 9.0 °F -9.0 °F 1.9 °F 73% 30.31 in 10.0 mi North 17.3 mph - N/A   Mostly Cloudy
12:53 AM 9.0 °F -9.5 °F 1.0 °F 70% 30.41 in 10.0 mi North 18.4 mph - N/A   Overcast
1:53 AM 8.1 °F -13.0 °F -0.0 °F 70% 30.44 in 10.0 mi North 24.2 mph 31.1 mph N/A   Overcast
2:50 AM 6.8 °F -13.8 °F -0.4 °F 72% 30.34 in 10.0 mi North 21.9 mph 32.2 mph N/A   Overcast
2:53 AM 7.0 °F -14.9 °F -0.9 °F 70% 30.45 in 10.0 mi North 25.3 mph 31.1 mph N/A   Overcast
3:53 AM 6.1 °F -15.7 °F -2.0 °F 69% 30.49 in 10.0 mi North 24.2 mph 28.8 mph N/A   Overcast
4:53 AM 3.9 °F -17.6 °F -4.0 °F 70% 30.52 in 10.0 mi North 21.9 mph 28.8 mph N/A   Overcast
5:53 AM 3.9 °F -17.1 °F -5.1 °F 66% 30.57 in 10.0 mi North 20.7 mph - N/A   Overcast
6:53 AM 3.0 °F -18.3 °F -6.0 °F 66% 30.60 in 10.0 mi North 20.7 mph 26.5 mph N/A   Overcast
7:53 AM 3.0 °F -17.8 °F -6.0 °F 66% 30.61 in 10.0 mi North 19.6 mph - N/A   Overcast
8:34 AM 1.9 °F -20.2 °F -6.0 °F 69% 30.47 in 10.0 mi North 21.9 mph - N/A   Overcast
8:53 AM 3.0 °F -18.8 °F -6.0 °F 66% 30.62 in 10.0 mi North 21.9 mph - N/A   Scattered Clouds
9:24 AM 3.0 °F -16.1 °F -6.0 °F 66% 30.51 in 10.0 mi North 16.1 mph 25.3 mph N/A   Mostly Cloudy
9:53 AM 3.9 °F -14.3 °F -5.1 °F 66% 30.68 in 10.0 mi North 15.0 mph - N/A   Overcast
10:53 AM 5.0 °F -14.2 °F -5.1 °F 63% 30.68 in 10.0 mi North 17.3 mph - N/A   Mostly Cloudy
11:53 AM 6.1 °F -11.6 °F -4.0 °F 63% 30.69 in 10.0 mi North 15.0 mph - N/A   Overcast
12:53 PM 7.0 °F -10.4 °F -2.9 °F 64% 30.68 in 10.0 mi NNE 15.0 mph - N/A   Overcast
1:53 PM 7.0 °F -5.7 °F -2.9 °F 64% 30.67 in 9.0 mi North 8.1 mph - N/A   Overcast
2:39 PM 7.0 °F -8.3 °F -2.9 °F 64% 30.48 in 10.0 mi NNE 11.5 mph - N/A   Overcast
2:53 PM 7.0 °F -9.1 °F -2.9 °F 64% 30.63 in 10.0 mi North 12.7 mph - N/A   Overcast
3:19 PM 8.1 °F -7.0 °F -2.9 °F 61% 30.48 in 10.0 mi NNE 11.5 mph - N/A   Overcast
3:51 PM 8.6 °F -6.3 °F -2.2 °F 62% 30.48 in 10.0 mi North 11.5 mph - N/A   Overcast
3:53 PM 8.1 °F -6.2 °F -2.9 °F 61% 30.63 in 10.0 mi North 10.4 mph - N/A   Overcast
4:53 PM 7.0 °F -9.1 °F -2.9 °F 64% 30.62 in 10.0 mi NNE 12.7 mph - 0.00 in   Overcast
5:53 PM 7.0 °F -9.1 °F -2.9 °F 64% 30.63 in 4.0 mi NNE 12.7 mph - 0.00 in Snow Light Snow
6:53 PM 6.1 °F -9.5 °F -2.9 °F 67% 30.63 in 4.0 mi NNE 11.5 mph - 0.00 in Snow Light Snow
7:53 PM 6.1 °F -7.8 °F -0.9 °F 73% 30.65 in 4.0 mi NNE 9.2 mph - 0.01 in Snow Light Snow
8:53 PM 6.1 °F -10.2 °F -0.9 °F 73% 30.64 in 2.5 mi NE 12.7 mph - 0.00 in Snow Light Snow
9:03 PM 6.1 °F -8.7 °F -0.9 °F 73% 30.47 in 2.5 mi NE 10.4 mph - 0.00 in Snow Light Snow
9:07 PM 6.1 °F -7.8 °F -0.9 °F 73% 30.47 in 3.0 mi NE 9.2 mph - 0.00 in Snow Light Snow
9:53 PM 6.1 °F -6.8 °F -2.0 °F 69% 30.64 in 10.0 mi NE 8.1 mph - 0.01 in   Overcast
10:53 PM 6.1 °F -9.5 °F -2.0 °F 69% 30.64 in 10.0 mi NNE 11.5 mph - N/A   Overcast
11:53 PM 6.1 °F -7.8 °F -2.0 °F 69% 30.64 in 3.0 mi ENE 9.2 mph - 0.00 in Snow Light Snow